Wind_Speed
12 13 13 14 14 14 15 15 15 15 14 15 15 16 16 16 16 17 17 17 16 15 15 14 13 13 13 12 12 11 12 12 11 11 10 9 8 6 5 3 2 2 3
13 14 14 15 15 16 16 16 16 16 17 17 18 18 19 18 17 17 18 18 18 17 16 16 15 14 14 13 13 12 12 12 12 11 10 9 8 7 6 4 3 2 2
14 15 16 16 16 17 18 19 20 20 20 20 20 21 21 21 20 19 20 20 20 19 18 17 16 16 15 15 14 13 13 12 12 11 11 10 9 8 7 6 5 3 2
16 17 17 17 18 19 20 21 21 22 22 21 22 22 22 22 22 22 21 21 22 21 20 19 19 18 17 16 15 14 13 13 12 12 11 11 10 9 8 7 6 4 3
16 17 17 17 17 18 19 20 21 23 23 23 23 23 23 23 22 22 23 23 23 22 21 20 20 20 19 18 17 15 14 13 13 12 12 12 11 11 10 8 7 6 4
15 15 15 15 16 17 17 18 20 22 23 23 23 24 24 24 23 23 24 23 23 23 22 22 21 20 21 19 18 17 15 14 13 13 13 12 12 12 11 10 8 7 6
14 14 14 14 15 15 16 17 18 19 20 22 23 23 24 24 24 25 24 24 24 24 24 24 24 22 21 21 20 19 17 16 14 14 13 13 13 12 12 11 10 8 7
13 12 13 13 13 14 15 15 16 17 18 19 20 21 22 23 24 25 25 26 25 25 25 25 24 24 22 22 22 21 19 18 16 15 15 14 14 13 13 12 11 10 9
12 11 11 12 12 13 14 14 15 16 17 18 19 20 21 22 23 24 25 26 26 26 26 25 25 24 24 23 23 23 22 20 18 17 16 15 15 14 14 13 12 11 10
11 11 11 11 11 12 13 14 15 16 17 17 18 19 20 21 22 23 24 25 26 28 27 26 25 25 26 25 24 24 24 22 20 18 17 17 16 15 15 14 13 13 12
10 10 11 12 12 13 14 15 16 17 17 18 18 18 18 19 20 21 21 23 24 25 26 26 26 24 25 26 25 24 25 24 22 20 19 18 17 16 16 15 14 14 13
10 10 11 12 13 14 15 16 17 17 18 18 18 17 18 18 19 19 20 21 22 23 24 25 25 26 25 25 25 25 25 25 23 21 21 20 19 18 17 16 15 14 14
10 10 12 13 14 15 16 16 17 18 18 18 18 18 18 18 19 19 19 20 21 21 22 23 24 25 25 26 25 25 25 25 24 23 22 22 20 19 18 17 16 15 15
10 10 12 13 14 15 16 17 17 18 19 19 19 19 18 18 19 19 19 19 19 20 21 22 23 23 23 24 25 25 25 25 25 24 23 23 21 20 19 18 17 16 16
10 11 12 13 14 15 16 17 18 19 20 20 19 19 19 19 18 18 18 17 17 18 19 21 22 23 23 23 24 24 24 25 26 25 25 24 23 21 20 19 18 17 17
10 11 12 13 15 16 16 17 19 20 20 20 20 19 19 18 18 17 17 16 16 17 17 19 20 22 22 22 23 24 24 25 25 25 25 25 24 22 22 20 19 19 18
10 11 12 13 15 16 17 18 19 20 20 20 19 19 19 18 18 17 16 15 15 16 16 16 18 19 20 21 22 23 24 25 25 26 25 25 25 24 23 21 20 19 19
10 11 12 14 15 16 17 18 19 20 20 20 19 19 18 18 18 17 16 15 14 14 14 14 16 18 19 19 21 23 23 25 25 27 26 25 25 25 23 22 21 21 20
10 11 12 14 15 16 17 18 19 20 20 20 19 19 18 18 17 16 15 13 12 11 12 13 14 16 18 18 20 21 22 24 25 27 27 26 25 25 24 23 22 21 21
10 11 13 14 15 16 17 18 19 20 20 20 19 18 18 17 16 15 14 12 11 10 10 11 11 13 16 17 18 20 21 23 24 26 27 27 26 25 25 24 23 22 22
10 11 12 14 15 16 17 18 19 19 20 19 19 18 17 17 16 15 13 11 10 9 9 9 9 11 13 15 17 18 20 22 22 24 26 27 26 26 25 25 24 24 23
10 11 12 13 15 16 17 17 18 19 19 19 19 18 17 16 15 15 14 11 10 8 7 7 7 9 11 12 15 17 19 20 22 23 25 27 26 26 25 25 26 25 24
10 11 12 13 15 15 16 17 18 19 19 19 19 17 17 16 15 14 13 12 9 7 6 6 5 7 9 11 13 14 17 19 21 23 24 26 27 27 26 25 26 26 25
10 10 12 13 14 15 15 17 18 18 19 19 18 17 16 16 15 14 13 12 9 7 7 6 5 5 7 9 12 13 15 17 19 22 23 25 26 26 26 25 26 26 25
10 10 11 12 13 14 15 16 17 18 18 18 18 17 16 16 15 14 13 11 9 7 6 5 5 5 6 8 10 12 14 16 17 20 22 24 25 25 25 25 26 27 27
10 10 11 12 12 13 14 15 16 17 18 18 18 17 16 15 15 14 13 11 9 8 6 5 5 5 5 7 9 11 13 15 17 18 20 22 23 24 25 26 26 26 28
Wind_Direction
295 294 292 288 286 285 284 280 279 274 272 272 269 266 264 259 254 253 251 248 248 247 245 245 245 245 246 246 245 244 243 241 239 240 241 240 243 246 249 255 275 304 338
295 294 292 287 286 284 281 279 278 275 275 275 272 269 265 262 258 255 253 252 251 251 248 246 244 244 244 245 244 244 243 242 240 239 237 236 237 239 240 238 250 272 315
295 295 293 287 284 283 280 277 277 276 275 275 272 270 269 264 261 257 255 255 255 254 251 247 243 244 244 244 244 243 243 242 239 237 234 232 232 233 234 234 242 250 270
298 296 293 288 284 283 282 279 276 276 275 276 272 270 272 267 262 258 257 256 256 255 253 250 245 243 244 244 243 242 241 241 238 234 230 229 229 229 229 229 233 234 240
301 298 296 292 289 286 284 281 278 277 277 276 275 270 271 269 264 261 259 258 256 254 253 249 246 244 243 243 242 240 239 239 237 233 229 227 227 227 226 225 225 224 227
305 303 302 298 294 292 290 287 284 281 279 276 275 273 272 272 271 266 263 260 256 255 254 251 249 247 244 242 240 237 237 237 236 232 228 226 225 225 223 222 221 219 219
311 309 308 307 305 304 301 297 295 291 286 283 279 277 276 276 272 269 268 263 261 259 255 253 250 247 245 240 237 237 235 234 233 231 227 226 224 224 222 220 219 217 215
316 315 315 316 315 313 311 309 307 302 297 291 287 284 280 277 273 271 268 265 263 260 257 253 251 246 246 240 236 236 235 234 233 229 227 226 224 223 223 221 220 216 214
320 322 324 325 325 323 321 318 315 312 307 301 296 292 288 282 276 273 270 266 263 260 258 255 252 247 244 241 239 237 234 233 232 230 227 226 223 223 223 222 220 216 215
322 326 330 333 334 332 329 326 322 319 315 309 302 296 292 288 284 277 272 268 264 260 258 256 253 250 245 242 240 238 233 231 230 231 227 225 224 224 221 220 220 217 215
324 329 334 336 336 335 333 331 329 326 322 316 309 303 297 293 288 281 275 270 266 261 259 256 253 249 245 241 240 237 234 231 230 229 226 225 224 223 220 220 220 218 215
327 331 333 335 335 334 334 333 331 329 326 322 317 310 303 298 293 287 280 273 267 263 259 255 254 251 246 240 239 237 234 231 229 229 225 224 224 222 221 221 221 219 214
330 333 334 335 335 335 334 334 333 331 328 325 322 317 310 303 298 293 285 278 271 265 260 256 253 251 247 241 238 236 233 229 228 228 224 223 223 222 221 221 221 218 212
331 334 335 336 337 336 336 335 335 333 330 327 324 321 315 310 302 296 290 282 273 267 261 256 253 247 245 241 238 236 232 228 227 227 224 222 222 221 220 220 220 218 213
330 333 335 337 337 337 337 336 335 333 331 328 326 324 320 314 309 301 296 288 277 270 263 257 253 247 245 240 237 235 230 228 227 225 223 222 221 220 221 220 219 217 215
330 332 334 336 337 338 338 337 336 335 333 331 329 327 324 319 314 308 300 292 282 274 266 258 253 249 245 241 235 231 228 227 225 225 223 222 221 220 220 220 219 218 218
329 331 333 335 336 337 337 337 337 336 335 333 330 328 326 323 318 313 305 296 287 279 270 261 253 248 243 239 234 231 229 226 223 223 222 223 221 219 219 219 218 217 219
327 331 333 334 335 336 336 337 337 337 336 335 333 331 330 327 322 317 312 302 292 282 273 264 255 246 242 239 234 230 229 226 223 220 220 221 219 218 218 219 220 219 218
325 330 333 334 335 336 336 336 337 338 338 337 335 334 333 332 330 325 319 309 297 287 276 267 258 246 240 237 231 229 229 227 225 221 219 219 218 217 218 219 219 220 220
322 327 331 332 334 336 337 336 337 339 339 339 337 336 336 335 333 331 326 317 305 295 282 269 259 247 240 236 230 228 228 226 225 221 219 218 218 218 220 221 222 222 221
319 325 329 330 333 336 337 337 338 340 341 341 340 339 339 338 337 336 333 327 315 303 289 274 260 247 240 235 231 228 225 223 223 220 219 219 219 218 220 223 224 224 222
315 322 326 329 332 335 337 339 340 341 342 343 343 342 341 340 340 340 338 333 327 316 303 285 259 245 238 235 233 230 225 223 220 219 219 218 220 220 220 223 224 225 224
312 319 324 329 332 335 337 339 341 343 344 345 345 344 343 343 343 343 343 340 336 328 315 299 274 248 240 236 233 230 225 222 220 220 218 218 219 220 221 223 224 225 225
310 317 324 328 332 335 337 340 343 344 345 346 346 345 345 346 346 346 346 346 342 333 322 307 285 264 248 241 234 230 227 222 221 222 219 217 219 221 223 224 223 223 224
308 315 321 327 331 335 339 342 344 346 347 348 348 348 348 349 349 349 349 350 350 342 329 312 293 281 259 245 237 233 231 226 224 223 221 220 220 222 224 224 224 225 225
306 314 319 325 330 335 340 343 344 346 348 350 350 350 351 351 352 353 354 354 354 351 339 319 306 293 277 256 244 236 232 230 226 225 224 222 223 225 227 226 226 228 228
Height
5871 5871 5870 5870 5869 5868 5868 5867 5867 5866 5866 5866 5867 5866 5866 5866 5866 5866 5866 5866 5866 5867 5867 5867 5867 5868 5868 5868 5869 5869 5870 5870 5871 5872 5872 5873 5874 5874 5875 5875 5876 5876 5876
5869 5868 5868 5867 5866 5866 5865 5865 5864 5864 5863 5863 5863 5863 5863 5863 5863 5863 5864 5864 5864 5864 5865 5865 5865 5866 5866 5867 5867 5867 5868 5869 5869 5870 5871 5872 5873 5873 5874 5875 5875 5875 5876
5867 5866 5865 5864 5863 5863 5862 5861 5861 5860 5859 5859 5859 5859 5859 5859 5859 5860 5860 5861 5861 5861 5862 5862 5863 5864 5864 5865 5865 5866 5866 5867 5867 5868 5869 5870 5871 5872 5873 5874 5875 5875 5876
5864 5863 5862 5861 5860 5859 5858 5858 5857 5856 5855 5855 5855 5855 5854 5855 5855 5856 5856 5857 5857 5858 5859 5860 5860 5861 5862 5863 5863 5864 5864 5865 5866 5867 5868 5869 5870 5871 5872 5873 5874 5875 5875
5861 5860 5858 5858 5857 5856 5855 5854 5853 5852 5851 5851 5851 5850 5850 5850 5850 5851 5852 5853 5853 5854 5855 5856 5857 5858 5859 5860 5861 5862 5862 5863 5864 5865 5866 5867 5868 5869 5871 5872 5873 5874 5875
5859 5857 5855 5855 5853 5852 5851 5850 5849 5848 5847 5846 5846 5846 5845 5845 5846 5846 5847 5848 5848 5850 5851 5852 5853 5854 5855 5856 5858 5859 5860 5861 5862 5863 5864 5866 5867 5868 5869 5871 5872 5873 5874
5856 5855 5853 5852 5850 5849 5848 5846 5845 5844 5843 5842 5841 5841 5840 5840 5841 5841 5842 5843 5843 5844 5846 5847 5848 5850 5852 5853 5854 5856 5857 5858 5860 5861 5862 5864 5865 5866 5868 5869 5871 5872 5873
5854 5853 5851 5849 5848 5847 5845 5843 5842 5840 5839 5838 5837 5836 5835 5835 5835 5836 5836 5837 5838 5839 5841 5842 5843 5845 5847 5849 5851 5852 5854 5855 5857 5859 5860 5861 5863 5864 5866 5868 5869 5871 5872
5852 5850 5849 5847 5846 5844 5843 5841 5839 5838 5836 5834 5833 5832 5831 5830 5830 5830 5831 5831 5832 5834 5835 5837 5838 5840 5843 5845 5847 5849 5850 5852 5854 5856 5858 5859 5861 5862 5864 5866 5868 5869 5871
5850 5849 5847 5846 5844 5843 5841 5839 5837 5835 5833 5831 5830 5828 5827 5826 5825 5825 5825 5826 5826 5828 5829 5831 5833 5835 5837 5840 5842 5844 5847 5849 5851 5853 5855 5857 5858 5860 5862 5864 5866 5868 5870
5849 5847 5846 5844 5843 5841 5839 5837 5835 5832 5830 5828 5826 5824 5823 5822 5821 5820 5820 5820 5821 5822 5823 5825 5827 5829 5832 5835 5837 5840 5842 5845 5848 5850 5853 5854 5856 5858 5860 5862 5864 5866 5868
5848 5846 5845 5843 5841 5839 5837 5835 5833 5830 5828 5825 5823 5821 5819 5818 5817 5816 5815 5815 5815 5816 5817 5819 5821 5824 5826 5829 5832 5835 5837 5841 5844 5847 5849 5852 5854 5856 5858 5860 5862 5864 5866
5846 5845 5843 5842 5840 5838 5836 5833 5831 5828 5826 5823 5820 5818 5816 5814 5812 5811 5810 5810 5810 5810 5812 5814 5815 5818 5821 5824 5827 5830 5833 5836 5840 5843 5846 5848 5851 5853 5856 5858 5860 5862 5865
5845 5844 5842 5840 5839 5837 5834 5832 5829 5826 5823 5821 5818 5815 5813 5810 5808 5807 5806 5805 5805 5805 5806 5808 5810 5812 5815 5818 5822 5825 5828 5831 5835 5839 5842 5845 5848 5850 5853 5855 5858 5860 5863
5844 5843 5841 5839 5837 5835 5833 5830 5827 5824 5821 5818 5815 5812 5809 5807 5804 5803 5801 5800 5800 5800 5801 5803 5805 5807 5810 5813 5816 5820 5823 5827 5831 5834 5837 5841 5844 5847 5850 5853 5855 5858 5861
5843 5842 5840 5838 5836 5834 5831 5829 5826 5822 5819 5815 5812 5809 5806 5803 5801 5799 5798 5796 5796 5796 5796 5798 5799 5802 5805 5808 5811 5814 5818 5822 5825 5829 5833 5836 5840 5844 5847 5850 5853 5856 5858
5842 5841 5839 5837 5835 5833 5830 5827 5824 5821 5817 5813 5810 5806 5803 5800 5798 5796 5794 5793 5792 5792 5792 5793 5794 5797 5800 5803 5806 5809 5813 5816 5820 5825 5829 5832 5836 5840 5844 5847 5850 5853 5856
5841 5840 5838 5836 5834 5832 5829 5826 5823 5819 5815 5811 5808 5804 5801 5798 5795 5792 5790 5789 5788 5788 5787 5788 5789 5792 5794 5797 5801 5804 5808 5811 5815 5820 5824 5828 5832 5836 5840 5844 5847 5850 5853
5840 5838 5837 5835 5833 5830 5828 5825 5821 5818 5814 5810 5806 5802 5799 5795 5792 5790 5787 5785 5784 5784 5784 5784 5785 5788 5790 5793 5796 5799 5803 5807 5811 5815 5820 5824 5828 5832 5836 5840 5843 5847 5850
5838 5837 5836 5834 5832 5829 5826 5823 5820 5816 5812 5808 5804 5801 5797 5794 5790 5787 5785 5783 5782 5781 5781 5781 5782 5784 5786 5789 5792 5795 5799 5803 5807 5811 5815 5820 5824 5828 5832 5836 5840 5843 5847
5837 5836 5835 5833 5831 5828 5825 5822 5819 5815 5811 5807 5803 5799 5796 5792 5789 5786 5783 5781 5780 5779 5778 5778 5779 5781 5783 5785 5788 5791 5795 5798 5802 5806 5811 5815 5820 5824 5828 5832 5836 5839 5843
5836 5835 5833 5832 5829 5827 5824 5821 5817 5814 5810 5806 5802 5798 5795 5791 5788 5785 5782 5780 5778 5777 5777 5777 5777 5778 5780 5782 5785 5787 5791 5795 5798 5802 5806 5811 5816 5820 5824 5827 5831 5835 5839
5835 5833 5832 5830 5828 5826 5823 5820 5817 5813 5809 5805 5801 5797 5794 5790 5787 5784 5782 5779 5777 5776 5776 5775 5776 5777 5778 5780 5782 5784 5787 5790 5794 5799 5802 5807 5811 5815 5819 5823 5827 5831 5835
5833 5832 5831 5829 5827 5824 5822 5819 5816 5812 5809 5805 5801 5797 5793 5790 5787 5784 5781 5779 5777 5775 5775 5774 5774 5775 5776 5778 5779 5781 5784 5787 5791 5795 5798 5802 5806 5811 5814 5818 5823 5827 5830
5832 5831 5829 5828 5826 5823 5821 5818 5815 5811 5808 5804 5800 5797 5793 5790 5787 5784 5781 5778 5776 5775 5774 5773 5773 5774 5774 5775 5777 5778 5781 5784 5787 5790 5794 5798 5802 5806 5810 5814 5818 5821 5825
5830 5829 5828 5826 5824 5822 5820 5817 5814 5811 5808 5804 5800 5796 5793 5790 5787 5784 5781 5778 5776 5775 5773 5773 5772 5772 5773 5774 5775 5776 5778 5781 5783 5787 5790 5794 5798 5802 5806 5809 5813 5816 5820